OBJECT E, 100655

Orbit data source: Space-Track

You're viewing an uncataloged RSO

Recently launched and/or uncataloged RSOs may have evolving metadata. Metadata may include the following, but is not limited to: Owner, Manufacturer, Bus, Motor, and Mission.

OBJECT E, 100655 is a Chinese satellite in LEO that was launched on Thu, 10 Sep 2026 UTC launched from the Jiuquan Satellite Launch Center, China (JSC). Unknown objects in Earth's orbit typically refer to objects detected orbiting the Earth but have not yet been identified or cataloged. These objects could be anything from previously untracked satellites, spent rocket stages, debris from satellite collisions, or even natural meteoroids temporarily captured by Earth's gravity.

Loading next visibility...
Identifier
100655, 2026-205E
Orbit
LEO
Country
Flag of CNCN / PRC
Related business
None
Manufacturer
Unknown
Mission
Operational spacecraft
Bus & Motor
Unknown
Mass
Unknown
Launch date (UTC)
2026-09-10 (3 days ago)
Launch vehicle
Unknown
Launch site
Jiuquan Satellite Launch Center, China (JSC)
Object type
Unknown
Shape & HBR
Unknown
Radar Cross Section
RCS unknown

Expand to show TLE details & history
Last TLE update: 6 hours ago

TLE from 6 hours ago
0 OBJECT E
1 A0655U 26205E   26255.92847685  .00003293  00000-0  18176-3 0  9993
2 A0655  44.9924  94.5791 0007576 285.6332  74.3711 15.16041610   399
Epoch: 2026-09-12T22:17Z
TLE epoch observation values (Epoch: 2026-09-12T22:17:00.399Z)
Latitude
0.00002°
Longitude
128.39701°
Altitude
516.412 km
Speed
7.608 km/s
True Right ascension
06h 18m 18s
True Declination
0° 00' 00"
Sunlit
Object was in daylight at epoch
Visualization orbit readout
Latitude
Unknown
Longitude
Unknown
Altitude
Unknown
Speed
Unknown
Apparent Right ascension
Unknown
Apparent Declination
Unknown
Sunlit
N/A
Visualization observer readout
Local Sidereal Time
20:48:34
Azimuth
Unknown
Elevation
Unknown
Doppler factor
Unknown
Orbital elements
Apogee altitude
524.646 km
Perigee altitude
514.195 km
Semi-major axis
6,897.558 km
Eccentricity
0.00076
Inclination
44.9924°
RAAN
94.5791°
Arg. of periapsis
285.6332°
True anomaly
74.45473°
Mean anomaly
74.3711°
Eccentric anomaly
74.41291°
Mean motion
3.78879 °/min
Orbital period
95.02 mins
BSTAR
0.00018176
Loading maneuver chart data...
Computing Atmospheric mass density...
Loading historical data...
Loading historical data...
Loading historical data...
Loading historical data...
Loading historical data...
Loading historical data...
Loading historical data...
Other satellites on launch #205 in the year 2026 (2026-09-10 UTC)

Documentation

Showing up to 5 results
|